Change the Weather History Date:

Wednesday, January 1, 2014

  Actual Average Record
Temperature  
Mean Temperature 41 °F -  
Max Temperature 50 °F 55 °F 73 °F (1985)
Min Temperature 32 °F 37 °F 18 °F (1984)
Degree Days  
Heating Degree Days 24    
Moisture  
Dew Point 32 °F    
Average Humidity 73    
Maximum Humidity 96    
Minimum Humidity 36    
Precipitation  
Precipitation 0.00 in - - ()
Sea Level Pressure  
Sea Level Pressure 30.33 in    
Wind  
Wind Speed 1 mph (ENE)    
Max Wind Speed 7 mph    
Max Gust Speed -    
Visibility 10 miles    
Events      
Averages and records for this station are not official NWS values.
T = Trace of Precipitation, MM = Missing Value Source: NWS Daily Summary

Daily Weather History Graph

Daily Weather History Graph

Search for Another Location

Airport or City:

Trip Planner

Search our weather history database for the weather conditions in past years. The results will help you decide how hot, cold, wet, or windy it might be!

Date:

Astronomy

Jan. 01, 2014 Rise Set
Actual Time 7:24 AM EST 5:15 PM EST
Civil Twilight 6:56 AM EST 5:43 PM EST
Nautical Twilight 6:24 AM EST 6:14 PM EST
Astronomical Twilight 5:53 AM EST 6:45 PM EST
Moon 7:15 AM EST (1/1) 5:55 PM EST (1/1)
Length of Visible Light 10h 46m
Length of Day
9h 50m
New Moon, 0% of the Moon is Illuminated
Jan 1
New Moon
Jan 7
First Quarter
Jan 15
Full
Jan 24
Last Quarter
Jan 30
New

Hourly Weather History & Observations

Time (EST) Temp. Dew Point Humidity Pressure Visibility Wind Dir Wind Speed Gust Speed Precip Events Conditions
12:58 AM 32.7 °F 30.9 °F 93% 30.38 in 10.0 mi Calm Calm - N/A   Clear
1:58 AM 32.5 °F 30.6 °F 92% 30.38 in 10.0 mi SW 2.3 mph - N/A   Clear
2:58 AM 32.0 °F 30.2 °F 93% 30.40 in 10.0 mi Calm Calm - N/A   Clear
3:58 AM 33.3 °F 30.0 °F 88% 30.38 in 10.0 mi WSW 2.3 mph - N/A   Clear
4:58 AM 32.5 °F 30.6 °F 92% 30.38 in 10.0 mi NNE 2.3 mph - N/A   Clear
5:58 AM 32.0 °F 30.7 °F 95% 30.39 in 10.0 mi NNE 2.3 mph - N/A   Clear
6:58 AM 32.4 °F 30.9 °F 94% 30.42 in 10.0 mi NNE 1.2 mph - N/A   Clear
7:58 AM 32.2 °F 31.1 °F 96% 30.41 in 10.0 mi Calm Calm - N/A   Clear
8:58 AM 34.5 °F 32.0 °F 90% 30.44 in 10.0 mi North 1.2 mph - N/A   Clear
9:58 AM 37.2 °F 33.4 °F 86% 30.45 in 10.0 mi NE 1.2 mph - N/A   Clear
10:58 AM 48.0 °F 23.5 °F 38% 30.42 in 10.0 mi ESE 6.9 mph - N/A   Clear
11:58 AM 48.9 °F 23.0 °F 36% 30.38 in 10.0 mi SSE 4.6 mph - N/A   Partly Cloudy
12:58 PM 49.1 °F 24.4 °F 38% 30.35 in 10.0 mi Variable 3.5 mph - N/A   Partly Cloudy
1:58 PM 49.6 °F 24.4 °F 37% 30.32 in 10.0 mi Variable 3.5 mph - N/A   Partly Cloudy
2:58 PM 50.0 °F 26.8 °F 41% 30.30 in 10.0 mi SE 3.5 mph - N/A   Partly Cloudy
3:58 PM 49.6 °F 27.9 °F 43% 30.30 in 10.0 mi SE 1.2 mph - N/A   Clear
4:58 PM 48.2 °F 32.4 °F 54% 30.27 in 10.0 mi Calm Calm - N/A   Mostly Cloudy
5:58 PM 44.1 °F 36.0 °F 73% 30.27 in 10.0 mi Calm Calm - N/A   Clear
6:58 PM 44.1 °F 36.9 °F 76% 30.27 in 10.0 mi NNE 2.3 mph - N/A   Overcast
7:58 PM 44.4 °F 37.4 °F 76% 30.27 in 10.0 mi Calm Calm - N/A   Overcast
8:58 PM 45.3 °F 36.7 °F 72% 30.24 in 10.0 mi Calm Calm - N/A   Overcast
9:58 PM 45.0 °F 39.2 °F 80% 30.22 in 10.0 mi Calm Calm - N/A   Overcast
10:53 PM 44.6 °F 39.2 °F 81% 30.19 in 10.0 mi Calm Calm - N/A   Overcast
10:58 PM 44.8 °F 38.1 °F 77% 30.20 in 10.0 mi North 2.3 mph - N/A   Overcast
11:58 PM 45.1 °F 37.8 °F 75% 30.17 in 10.0 mi Calm Calm - N/A   Overcast